Temperature
12 12 12 12 12 12 12 12 12 12 12 12 12 12 12 12 12 12 12 12 12 12 12 12 12 12 12 12 12 11 11 11 11 11 11 11 11 11 11 11 11 11 11
12 12 12 12 12 12 12 12 12 12 12 12 12 11 11 11 11 11 11 11 11 11 11 11 11 11 11 11 11 11 11 11 11 11 11 11 11 11 11 11 11 11 11
11 11 11 11 11 11 11 11 11 11 11 11 11 11 11 11 11 11 11 11 11 11 11 11 11 11 11 11 11 11 11 11 11 11 11 11 11 11 10 10 10 10 10
11 11 11 11 11 11 11 11 11 11 11 11 11 11 11 11 11 11 11 11 11 11 11 11 11 11 11 10 10 11 11 10 10 10 10 10 10 10 10 10 10 10 10
11 11 11 10 10 11 11 11 10 10 10 10 10 10 10 10 10 10 10 10 11 11 11 10 10 10 10 10 10 10 10 10 10 10 10 10 10 10 10 10 10 10 10
10 10 10 10 10 10 10 10 10 10 10 10 10 10 10 10 10 10 10 10 10 10 10 10 10 10 10 10 10 9 10 10 10 10 10 10 10 10 10 10 9 9 9
10 10 10 10 10 10 10 10 10 10 10 9 9 9 9 9 9 9 9 9 9 10 10 10 10 10 10 10 9 9 9 9 9 9 9 9 9 9 9 9 9 9 9
9 10 9 9 9 9 9 9 9 9 9 9 9 9 8 8 8 9 9 9 9 9 9 9 9 9 9 9 9 9 9 9 9 9 9 9 9 9 9 9 9 8 8
9 9 9 9 9 9 9 9 9 9 9 9 9 8 8 8 7 8 8 8 8 8 9 9 9 9 9 9 9 9 9 8 8 8 8 8 8 8 8 8 8 8 8
9 9 9 9 9 9 9 9 9 9 8 8 8 8 8 8 8 7 7 8 8 8 8 8 8 8 8 8 8 8 8 8 8 8 8 8 8 8 7 8 8 8 7
8 8 8 8 8 8 8 8 8 8 8 8 8 8 8 8 8 7 7 7 7 8 8 8 8 8 8 8 8 8 8 8 8 8 7 7 7 7 7 7 7 7 7
8 8 8 8 8 8 8 8 7 7 8 8 8 8 8 7 7 7 7 7 7 7 7 7 7 7 7 7 7 7 7 7 7 7 7 7 7 7 7 7 7 7 7
8 8 8 8 8 8 7 7 7 7 7 7 7 7 7 7 7 7 7 7 6 6 7 7 7 7 7 7 7 7 7 7 7 7 7 7 7 7 7 6 6 6 6
8 7 7 7 7 7 7 7 7 7 7 7 7 7 7 7 7 7 7 6 6 6 6 6 6 7 7 7 6 6 6 6 6 6 6 6 6 6 6 6 6 6 6
7 7 7 7 7 7 7 6 6 6 6 6 6 6 6 6 6 6 6 6 6 6 6 6 6 6 6 6 6 6 6 6 6 6 6 6 6 6 6 6 6 5 5
7 7 7 7 7 6 6 6 6 6 6 6 6 6 6 6 6 6 6 6 6 5 6 6 6 6 5 5 5 5 5 5 5 5 5 5 5 5 5 5 5 5 5
6 6 6 6 6 6 6 6 6 6 6 6 6 6 6 6 6 5 5 5 5 5 5 5 5 5 5 5 5 5 5 5 5 5 5 5 5 5 5 5 5 5 4
6 6 6 6 6 6 6 6 6 6 5 5 5 5 5 5 5 5 5 5 5 5 5 5 5 5 5 4 4 4 4 4 4 4 4 4 4 4 4 4 4 4 4
6 6 5 5 5 5 5 5 5 5 5 5 5 5 5 5 5 5 5 5 5 4 4 4 4 5 4 4 4 4 4 4 4 4 4 4 4 4 4 4 4 4 4
5 5 5 5 5 5 5 5 5 5 5 5 5 4 4 5 4 4 4 4 4 4 4 4 4 4 4 4 3 3 3 3 3 3 3 3 3 3 3 3 3 3 3
5 5 5 5 5 5 5 4 4 4 4 4 4 4 4 4 4 4 4 4 3 3 3 3 3 3 3 3 3 3 3 3 3 3 3 3 3 3 3 3 3 3 3
4 4 4 4 4 4 4 4 4 4 4 4 4 4 4 4 4 4 3 3 3 3 3 3 3 3 3 3 2 2 2 2 2 2 2 2 2 2 2 2 2 2 2
4 4 4 4 4 4 4 4 3 3 3 4 4 3 3 3 3 3 3 3 3 3 2 2 2 2 2 2 2 2 2 1 1 2 1 2 2 2 2 2 2 2 1
4 4 4 3 3 3 3 3 3 3 3 3 3 3 3 3 3 3 3 2 2 2 2 2 2 2 2 1 1 1 1 1 1 1 1 1 1 1 1 1 1 1 1
3 3 3 3 3 3 3 3 3 2 2 3 2 2 2 2 2 2 2 2 2 2 2 1 1 1 1 1 1 0 0 -0 -0 0 0 0 0 0 1 1 1 1 0
2 2 2 2 2 2 2 2 2 2 2 2 2 2 2 2 2 1 1 1 1 1 1 1 1 1 1 0 0 -0 -0 -1 -1 -1 -0 -1 -0 -1 -1 -0 -0 -0 -0
Wind_Speed
3 4 4 5 6 6 6 6 7 7 6 7 7 7 6 6 5 4 3 3 3 2 2 4 5 6 7 7 6 6 6 6 7 7 7 6 6 6 6 6 7 7 7
5 4 4 4 5 6 6 6 6 6 5 6 5 6 5 5 5 5 4 3 3 3 3 3 4 6 6 6 6 6 6 6 6 6 6 6 6 6 6 6 7 7 7
6 5 3 3 4 6 7 7 7 6 5 5 4 4 5 5 5 4 4 3 3 3 3 4 4 5 5 6 6 6 6 6 5 5 5 6 6 6 6 6 7 7 7
6 6 3 3 5 6 6 5 4 4 4 4 3 2 3 4 4 4 4 4 3 3 3 3 3 3 4 4 5 6 6 5 5 5 5 5 6 6 5 5 6 6 7
6 6 4 4 6 5 4 4 3 4 4 4 3 2 3 3 3 3 3 3 3 3 2 2 3 3 2 3 4 5 5 5 5 4 4 5 4 5 5 5 5 5 6
5 6 5 5 6 4 3 4 4 3 3 4 4 3 2 2 3 3 2 3 3 3 3 2 3 2 2 3 3 4 4 4 4 4 3 3 3 3 4 4 5 5 5
5 5 4 4 4 4 5 5 4 4 3 3 3 2 2 2 2 2 3 3 3 3 4 3 3 3 2 2 2 3 3 4 3 3 2 2 2 2 2 3 3 4 5
4 5 5 4 4 4 5 5 5 3 2 1 2 2 1 2 2 1 1 1 1 3 3 2 2 2 2 2 1 2 2 3 3 2 2 1 1 1 1 2 3 4 4
4 4 5 5 5 5 5 5 5 5 3 1 1 3 3 2 1 1 1 0 0 1 1 2 2 1 1 1 1 1 2 3 3 2 2 1 1 1 1 2 3 3 4
4 4 6 6 6 5 6 6 5 3 5 3 1 1 1 3 2 1 1 1 1 1 1 1 0 0 0 0 0 1 2 2 3 3 3 3 2 2 3 3 3 4 4
3 4 5 6 6 5 6 5 4 4 4 4 3 2 1 1 1 2 2 2 1 2 1 1 1 1 1 0 0 1 2 3 4 5 5 4 4 4 4 4 4 5 5
2 3 4 5 5 5 5 5 5 5 5 4 3 3 3 2 3 2 2 3 3 2 2 1 1 2 2 2 1 1 1 3 4 5 5 5 5 5 5 6 6 6 6
2 4 3 4 4 4 5 5 4 4 4 5 5 3 3 2 2 2 2 2 2 2 2 2 2 2 2 2 2 3 3 3 4 5 6 6 6 6 6 7 7 7 7
4 4 4 4 4 5 5 5 4 4 3 4 4 4 2 2 2 2 3 2 1 2 2 3 2 2 2 3 4 4 4 4 5 5 6 6 6 6 6 7 7 7 7
3 4 5 4 4 5 5 5 4 4 4 4 4 4 3 2 2 2 2 3 3 3 4 4 2 2 2 3 4 4 4 5 6 6 6 6 6 6 6 7 8 8 8
4 4 4 5 4 5 5 5 4 4 4 4 3 4 3 3 2 2 3 2 3 3 4 4 3 2 2 3 4 4 5 6 6 7 7 6 6 6 7 7 7 8 8
5 5 5 5 5 5 5 5 4 5 5 5 4 5 5 4 3 3 3 2 3 3 4 3 2 2 2 2 3 4 4 4 5 6 6 7 6 7 7 7 8 8 8
5 5 5 5 5 5 5 6 6 6 6 6 6 5 5 4 4 4 3 3 3 3 3 3 2 2 3 3 3 3 3 4 4 6 6 7 7 7 7 8 8 8 8
5 5 5 6 5 6 6 6 7 6 6 6 6 6 6 6 5 4 4 4 3 2 2 2 2 1 2 2 2 2 3 3 4 5 6 6 7 7 8 8 9 9 9
5 5 5 5 5 5 6 6 6 6 5 5 5 6 6 7 7 6 5 5 4 3 2 2 2 2 2 2 1 2 3 2 3 4 5 6 7 7 8 9 9 9 9
5 5 5 4 4 4 5 6 6 6 5 5 5 5 6 7 8 6 5 5 5 4 3 3 3 2 2 2 3 2 3 3 4 3 3 3 4 5 7 8 9 9 9
4 4 5 5 5 5 6 7 6 6 6 6 6 5 5 6 7 8 8 8 7 6 6 5 4 4 5 4 3 3 3 2 4 2 2 3 3 4 6 7 9 10 10
4 4 4 5 5 5 6 7 7 5 5 6 6 5 4 5 6 5 6 7 7 8 8 7 6 7 6 6 5 4 4 5 5 3 2 4 3 5 6 8 10 10 11
4 4 4 5 5 5 5 6 6 4 4 5 6 6 6 5 5 6 5 5 5 6 7 7 7 7 7 6 7 6 5 4 4 3 3 4 3 4 5 7 10 10 10
3 3 3 4 4 4 6 5 5 3 3 4 4 5 5 5 7 7 5 5 4 4 6 7 8 8 9 9 7 3 3 3 4 3 3 3 2 3 3 5 8 9 9
3 2 2 3 4 4 5 5 4 3 3 3 3 4 6 6 7 7 5 5 6 5 4 3 3 4 5 6 8 6 5 4 4 3 3 3 2 1 3 3 4 5 7
Wind_Direction
130 123 118 119 118 118 117 111 107 102 96 95 99 101 94 88 86 90 87 82 83 80 94 126 137 136 130 128 122 111 102 98 93 89 85 84 80 75 68 61 54 49 47
122 125 124 121 119 124 125 120 116 110 102 98 90 92 92 89 83 81 74 67 59 46 57 82 128 136 132 127 121 117 107 98 96 92 85 82 82 77 68 60 51 46 42
132 124 121 123 125 128 120 112 105 102 101 97 92 88 86 82 81 77 74 71 64 53 56 63 96 119 126 129 124 114 110 104 101 95 88 81 80 75 66 57 50 46 43
136 129 118 126 129 125 117 117 117 108 104 101 97 84 78 76 78 80 82 80 78 69 60 57 72 93 120 131 128 122 115 112 109 104 95 84 77 72 62 51 47 43 39
141 135 130 129 130 122 119 126 118 122 120 110 100 82 68 69 72 79 75 77 84 84 79 62 67 72 104 136 137 129 124 112 110 114 107 94 80 69 59 48 44 39 36
151 139 131 133 136 132 134 130 122 107 117 119 101 73 50 38 55 65 70 72 76 81 82 74 79 73 83 127 143 143 136 129 115 115 113 103 90 73 58 44 36 33 28
158 146 138 139 147 156 154 141 126 117 108 109 93 62 30 35 42 40 50 66 66 75 80 75 77 78 72 111 138 153 156 148 138 120 124 119 98 78 55 37 24 20 17
163 161 151 159 162 156 150 150 139 133 135 132 123 112 69 349 346 353 7 39 45 60 65 67 77 80 79 82 117 165 179 178 170 162 147 162 166 60 19 10 5 359 358
170 170 166 163 167 167 170 170 161 153 162 182 152 143 153 204 271 309 307 320 357 30 48 52 58 66 78 78 79 200 198 203 207 210 207 215 249 258 302 326 330 334 337
171 174 172 170 173 172 173 179 172 161 160 175 170 105 141 152 162 207 284 286 325 284 303 1 2 314 57 104 194 213 190 205 229 240 249 250 261 276 270 285 303 313 320
179 177 176 175 175 175 178 180 177 171 170 178 178 167 149 107 160 173 219 253 275 253 254 263 226 256 255 233 268 245 222 223 236 245 255 261 267 278 286 283 288 297 303
188 188 180 178 178 177 180 184 186 187 187 181 182 178 173 175 188 183 207 227 243 259 253 246 237 239 236 224 254 287 275 254 247 250 259 269 277 282 289 295 295 290 293
197 198 184 178 178 179 180 176 180 193 189 184 189 198 195 195 176 176 182 210 245 276 268 249 241 235 235 226 250 266 267 263 254 256 261 269 279 289 295 295 299 302 295
200 189 183 181 179 174 174 173 177 196 192 193 196 190 194 203 187 181 179 179 230 277 264 252 253 233 233 236 248 253 260 265 265 270 272 273 276 283 290 290 288 293 299
193 182 178 181 179 175 173 170 183 189 189 197 196 192 197 206 195 188 184 182 187 227 243 238 237 251 249 249 246 241 253 265 264 268 273 278 277 277 278 281 281 283 288
188 184 186 182 182 181 178 174 179 185 184 199 198 193 201 205 195 187 189 195 197 207 234 228 225 236 242 253 253 243 249 263 267 269 271 276 280 278 275 278 279 278 283
189 190 191 185 183 186 184 179 187 188 193 202 202 202 209 200 196 198 192 193 202 199 231 251 238 237 223 242 255 250 253 250 265 270 272 276 279 277 274 275 280 276 278
195 194 191 188 189 193 190 190 195 197 200 202 205 203 210 204 201 200 196 202 211 209 212 239 249 240 241 239 241 254 269 259 264 271 270 277 277 275 280 279 277 274 275
191 190 190 194 197 199 200 201 200 202 207 206 205 205 208 200 208 207 202 203 208 219 207 212 243 252 263 261 267 279 281 279 271 268 270 277 275 273 279 281 277 275 273
186 191 196 200 201 200 202 201 200 206 210 212 208 208 207 204 208 205 204 202 196 198 196 203 233 254 263 264 244 261 283 278 277 274 274 278 274 274 277 282 279 274 272
192 190 190 197 200 201 201 199 200 204 207 212 214 215 214 211 210 208 211 201 194 200 201 213 229 240 247 231 232 234 262 280 274 259 269 274 275 280 280 279 277 272 271
191 188 196 197 203 216 213 206 204 202 206 210 217 219 219 212 215 223 227 221 207 204 208 215 230 232 240 231 226 235 242 269 272 243 233 268 260 267 273 274 274 273 274
187 193 202 200 209 221 215 212 213 211 209 213 215 214 220 219 213 212 223 227 229 230 221 217 222 230 230 221 209 230 235 240 251 247 238 262 245 260 271 277 276 273 274
195 200 206 206 209 224 218 216 214 212 213 214 213 211 210 212 213 204 200 212 226 234 232 225 224 228 227 215 209 220 230 250 272 257 221 252 255 258 275 278 276 273 275
201 207 210 207 211 226 219 214 212 204 214 220 218 212 207 212 219 210 200 209 230 249 250 240 237 238 236 229 213 195 211 243 269 257 216 223 252 273 275 270 271 270 276
201 197 209 213 211 220 221 211 208 198 212 222 218 219 225 226 228 221 210 208 226 240 233 237 242 243 235 224 222 212 206 226 252 260 228 210 237 285 294 264 258 273 282
Height
1523 1525 1527 1529 1531 1533 1535 1537 1539 1540 1542 1543 1545 1546 1547 1549 1550 1551 1552 1553 1554 1555 1556 1556 1557 1557 1558 1558 1559 1559 1559 1559 1559 1559 1559 1559 1559 1559 1559 1558 1558 1557 1557
1522 1524 1526 1528 1530 1532 1534 1535 1537 1539 1541 1542 1543 1545 1546 1548 1549 1550 1551 1552 1553 1554 1555 1555 1556 1557 1557 1558 1558 1558 1558 1558 1558 1559 1559 1559 1559 1558 1558 1558 1557 1557 1556
1520 1522 1524 1526 1528 1530 1532 1534 1535 1537 1539 1541 1542 1543 1545 1546 1547 1549 1550 1551 1552 1552 1553 1554 1555 1556 1556 1557 1557 1557 1557 1558 1558 1558 1558 1558 1558 1557 1557 1557 1556 1556 1555
1518 1520 1522 1524 1526 1528 1530 1532 1534 1535 1537 1539 1540 1542 1543 1544 1545 1547 1548 1549 1550 1551 1552 1553 1553 1554 1555 1555 1556 1556 1556 1556 1557 1557 1557 1557 1557 1557 1556 1556 1555 1555 1554
1516 1518 1520 1522 1524 1526 1528 1530 1532 1533 1535 1537 1538 1540 1541 1542 1543 1545 1546 1547 1548 1549 1550 1551 1552 1552 1553 1554 1554 1554 1555 1555 1555 1555 1556 1556 1555 1555 1555 1554 1554 1554 1553
1514 1516 1518 1520 1522 1524 1526 1528 1530 1532 1533 1535 1536 1537 1539 1540 1541 1542 1543 1544 1546 1547 1548 1549 1550 1551 1551 1552 1552 1553 1553 1553 1553 1554 1554 1554 1554 1554 1553 1553 1552 1552 1552
1512 1514 1516 1518 1520 1522 1524 1526 1528 1529 1531 1533 1534 1535 1536 1538 1539 1540 1541 1542 1543 1544 1545 1546 1547 1548 1549 1549 1550 1550 1551 1551 1552 1552 1552 1552 1552 1552 1551 1551 1550 1550 1550
1509 1511 1513 1515 1517 1519 1521 1523 1525 1526 1528 1531 1532 1533 1534 1536 1536 1537 1538 1539 1540 1542 1543 1544 1545 1545 1546 1547 1547 1548 1548 1549 1549 1550 1549 1550 1550 1549 1549 1549 1548 1548 1547
1506 1508 1510 1512 1514 1516 1518 1520 1522 1524 1525 1528 1530 1531 1532 1532 1533 1534 1535 1536 1537 1538 1540 1541 1542 1543 1543 1544 1544 1545 1546 1546 1547 1547 1547 1547 1547 1547 1547 1546 1546 1545 1545
1503 1505 1507 1509 1510 1513 1515 1517 1519 1521 1523 1524 1526 1528 1530 1530 1531 1531 1532 1533 1534 1535 1536 1538 1539 1539 1540 1541 1541 1542 1543 1543 1543 1544 1544 1544 1544 1544 1544 1543 1543 1542 1542
1500 1502 1504 1505 1507 1509 1512 1514 1515 1518 1520 1521 1523 1525 1526 1527 1528 1528 1528 1529 1531 1532 1533 1534 1535 1536 1537 1538 1538 1539 1539 1540 1540 1540 1541 1541 1541 1541 1540 1540 1539 1539 1539
1496 1498 1500 1502 1504 1506 1508 1510 1512 1514 1516 1518 1520 1521 1523 1524 1525 1525 1525 1525 1526 1528 1529 1530 1532 1532 1533 1534 1534 1535 1536 1536 1536 1537 1537 1537 1537 1537 1537 1536 1536 1535 1535
1492 1495 1497 1499 1501 1502 1504 1506 1508 1510 1512 1514 1516 1517 1519 1521 1522 1523 1523 1522 1523 1524 1525 1526 1528 1529 1529 1530 1530 1531 1532 1532 1532 1533 1533 1533 1533 1533 1532 1532 1532 1531 1531
1489 1492 1493 1495 1497 1499 1501 1503 1504 1506 1508 1510 1512 1513 1515 1517 1518 1519 1520 1520 1520 1520 1521 1522 1523 1525 1526 1526 1526 1527 1527 1527 1528 1528 1528 1528 1528 1528 1528 1528 1527 1527 1526
1486 1488 1490 1492 1493 1495 1497 1499 1500 1502 1504 1506 1507 1509 1511 1512 1514 1515 1516 1517 1518 1517 1516 1518 1519 1520 1521 1522 1522 1522 1523 1523 1523 1524 1524 1524 1524 1524 1523 1523 1523 1522 1522
1483 1485 1486 1488 1490 1492 1493 1495 1496 1498 1500 1501 1503 1504 1506 1508 1509 1510 1511 1512 1513 1514 1513 1513 1515 1516 1517 1517 1518 1518 1518 1518 1518 1519 1519 1519 1519 1519 1518 1518 1518 1517 1517
1479 1481 1482 1484 1486 1487 1489 1491 1492 1494 1495 1497 1498 1500 1501 1503 1504 1505 1507 1508 1509 1509 1509 1509 1511 1512 1512 1513 1513 1513 1513 1513 1513 1514 1513 1513 1513 1513 1513 1513 1512 1512 1511
1475 1477 1478 1480 1481 1483 1485 1486 1488 1489 1491 1492 1493 1495 1497 1498 1499 1501 1502 1503 1504 1505 1505 1505 1505 1506 1507 1508 1508 1508 1508 1508 1508 1508 1508 1508 1508 1508 1507 1507 1507 1506 1505
1470 1472 1474 1476 1477 1479 1480 1482 1483 1485 1486 1487 1489 1490 1492 1493 1494 1496 1497 1498 1499 1500 1501 1501 1500 1501 1502 1503 1503 1503 1503 1503 1503 1503 1503 1502 1502 1502 1502 1501 1501 1500 1500
1466 1468 1470 1472 1473 1475 1476 1478 1479 1480 1482 1483 1484 1486 1487 1488 1490 1491 1492 1493 1494 1495 1496 1496 1496 1496 1497 1497 1498 1498 1497 1497 1498 1498 1497 1497 1496 1496 1496 1496 1495 1494 1494
1461 1463 1465 1467 1469 1471 1472 1473 1475 1476 1477 1478 1480 1481 1483 1484 1485 1486 1487 1488 1489 1490 1491 1491 1491 1491 1492 1492 1492 1492 1492 1492 1492 1492 1491 1491 1491 1490 1490 1490 1489 1488 1488
1457 1459 1461 1463 1465 1466 1468 1469 1471 1472 1473 1474 1475 1476 1478 1479 1480 1482 1483 1484 1485 1485 1485 1486 1486 1486 1486 1487 1487 1487 1487 1486 1485 1486 1485 1485 1485 1484 1484 1484 1483 1482 1482
1452 1454 1456 1458 1460 1462 1463 1465 1466 1467 1468 1469 1470 1471 1472 1473 1475 1476 1477 1478 1479 1480 1481 1481 1481 1481 1481 1482 1482 1482 1482 1481 1480 1480 1479 1478 1479 1478 1478 1477 1477 1476 1475
1448 1450 1452 1454 1456 1457 1459 1460 1462 1462 1463 1464 1465 1466 1467 1468 1470 1471 1472 1472 1473 1474 1475 1475 1475 1475 1476 1476 1476 1476 1476 1475 1474 1475 1474 1472 1471 1471 1471 1471 1471 1470 1469
1444 1446 1447 1449 1451 1452 1454 1456 1457 1458 1458 1459 1460 1461 1462 1463 1465 1466 1466 1467 1467 1468 1469 1469 1469 1469 1469 1470 1470 1470 1470 1470 1468 1468 1468 1467 1465 1465 1464 1463 1464 1464 1463
1440 1442 1443 1445 1446 1448 1449 1451 1452 1453 1453 1454 1455 1456 1458 1459 1460 1460 1461 1461 1461 1462 1462 1462 1462 1462 1462 1463 1464 1465 1465 1464 1463 1462 1461 1461 1460 1460 1457 1456 1457 1457 1456